Location: Pedro
(43.9050°N, 104.3408°W)
Time: 21:19:39
(UTC+00:00)

ISS - Pass Details

Date: 28 May 2023
Orbit: 414 x 422 km, 51.6° (Epoch: 22 September)

Event Time Altitude Azimuth Distance (km) Brightness Sun altitude
Rises 03:37:31 0° 301° (WNW) 2,425 1.9 -10.6°
Reaches altitude 10° 03:39:38 10° 301° (WNW) 1,558 0.6 -10.9°
Maximum altitude 03:43:09 88° 218° (SW) 448 -3.7 -11.4°
Enters shadow 03:45:37 19° 124° (ESE) 1,139 -2.2 -11.7°
